• Join FlightAware (Why Join?)
  • Login
  • US Flag 
10:27AM EST


 

Airport Tracker/Info


-or-


 

Live Flight TrackerFlight Track Log ✈ GGN7281 ✈ 30-Apr-2013 ✈ KROC - CYYZ

Flight Track Log - Related Links

Times and Time Zones

All times are in EDT time to prevent confusion due to time zone crossing. See the GGN7281 flight status page for this flight to view local times or setup timezone preferences in your user account.

Time Position Orientation Groundspeed Altitude Reporting Facility
EDT Latitude Longitude Course Direction KTS MPH feet Rate Location/Type
05:49PM 43.1219 -77.6819 273° West 140 161 1,000  Level Cleveland Center
05:50PM 43.1225 -77.6989 273° West 138 159 1,700 2,137 Climbing Cleveland Center
05:51PM 43.1281 -77.7583 277° West 186 214 3,600 2,379 Climbing Cleveland Center
05:52PM 43.1400 -77.8206 285° West 171 197 6,300 2,182 Climbing Cleveland Center
05:53PM 43.1500 -77.8911 281° West 188 216 8,000 1,388 Climbing Cleveland Center
05:54PM 43.1581 -77.9706 278° West 226 260 9,100 675 Climbing Cleveland Center
05:55PM 43.1667 -78.1000 275° West 250 288 9,900 286 Climbing Toronto Center
05:56PM 43.1667 -78.2167 270° West 260 299 9,900  Level Toronto Center
05:57PM 43.1833 -78.3000 285° West 250 288 9,900  Level Toronto Center
05:58PM 43.1833 -78.4000 270° West 250 288 9,900  Level Toronto Center
05:59PM 43.1833 -78.4833 270° West 250 288 9,900  Level Toronto Center
06:00PM 43.2167 -78.5833 295° West 230 265 9,900 50 Level Toronto Center
06:01PM 43.2167 -78.6500 270° West 220 253 10,000 50 Climbing Toronto Center
06:02PM 43.2333 -78.7333 285° West 220 253 10,000  Level Toronto Center
06:03PM 43.2167 -78.8167 255° West 210 242 10,000  Level Toronto Center
06:04PM 43.2000 -78.9000 255° West 220 253 10,000 -50 Level Toronto Center
06:05PM 43.1833 -78.9667 251° West 220 253 9,900  Descending Toronto Center
06:06PM 43.1500 -79.0667 245° Southwest 220 253 10,000 50 Climbing Toronto Center
06:07PM 43.1833 -79.1333 304° West 230 265 10,000  Level Toronto Center
06:08PM 43.2167 -79.2000 304° West 240 276 10,000 -100 Level Toronto Center
06:09PM 43.2667 -79.2667 316° Northwest 240 276 9,800 -350 Descending Toronto Center
06:10PM 43.3000 -79.3333 305° West 230 265 9,300 -500 Descending Toronto Center
06:11PM 43.3667 -79.3833 331° Northwest 230 265 8,800 -650 Descending Toronto Center
06:12PM 43.4167 -79.4333 324° Northwest 240 276 8,000 -350 Descending Toronto Center
06:13PM 43.4833 -79.4500 350° North 240 276 8,100 -300 Climbing Toronto Center
06:15PM 43.6000 -79.5000 343° North 250 288 7,100 -933 Descending Toronto Center
06:16PM 43.6500 -79.4333 44° Northeast 250 288 5,300 -1,550 Descending Toronto Center
06:17PM 43.7167 -79.3833 28° Northeast 250 288 4,000 -1,300 Descending Toronto Center